{"data":{"norad_id":67651,"intl_designator":"2026-022D","name":"STARLINK-36696","alt_names":[],"object_type":"PAYLOAD","status":"ACTIVE","operator":null,"country":"US","launch_date":"2026-02-02","launch_site_code":"AFWTR","launch_vehicle":null,"mission":null,"orbit_class":"UNKNOWN","rcs_meters":null,"size_class":null,"mass_kg":null,"dimensions":null,"purposes":["comms"],"wikipedia_slug":null,"has_3d_model":false,"image_url":null,"decayed_at":null,"tle_current":{"epoch":"2026-05-25T01:18:41.772096Z","epoch_age_seconds":66456,"freshness":"FRESH","line1":"1 67651U 26022D   26145.05465014  .00016711  00000+0  51859-3 0  9996","line2":"2 67651  97.2847 178.2791 0001184  94.6994 265.4384 15.33457359 17278","mean_motion":15.33457359,"eccentricity":0.0001184,"inclination_deg":97.2847,"raan_deg":178.2791,"arg_perigee_deg":94.6994,"mean_anomaly_deg":265.4384,"bstar":0.00051859,"rev_number":1727,"period_min":93.905447813629,"perigee_km":464.69611565748,"apogee_km":466.31669041532,"semimajor_km":6843.6434030364,"source":"CELESTRAK","updated_at":"2026-05-25T13:38:21.656809Z"}}}